{"data":{"norad_id":59130,"epoch":"2026-05-25T03:29:18.207168Z","epoch_age_seconds":59553,"freshness":"FRESH","line1":"1 59130U 24043AJ  26145.14534962  .00012818  00000+0  30005-3 0  9993","line2":"2 59130  97.5561 288.7839 0006447 301.8587  58.2031 15.42245619123960","mean_motion":15.42245619,"eccentricity":0.0006447,"inclination_deg":97.5561,"raan_deg":288.7839,"arg_perigee_deg":301.8587,"mean_anomaly_deg":58.2031,"bstar":0.00030005,"rev_number":12396,"period_min":93.370341420305,"perigee_km":435.08799843789,"apogee_km":443.87863807625,"semimajor_km":6817.6203182571,"source":"CELESTRAK","updated_at":"2026-05-25T13:38:01.196455Z"}}